Simultaneous Nadir Overpasses (SNOs) Predictions

Prediction of SNOs between GOES-15 and METOP-A Satellite Orbit:

Table of predicted SNOs for the next 14.0 days since TLE Epoch: 12/27/2013
Index Date Time (GOES-15) GOES-15 Lat,Lon METOP-A Lat,Lon Distance(km) Time Diff (sec)
1 12/27/2013 18:18:00 -0.10,-134.78 -0.61,-132.60 249.09 80
2 12/29/2013 06:39:40 0.08,-134.74 -0.44,-137.19 278.68 80
3 12/30/2013 06:16:20 0.09,-134.69 0.67,-132.20 284.79 80
4 12/31/2013 18:37:51 -0.07,-134.58 0.43,-136.74 246.20 80
5 01/01/2014 18:14:31 -0.08,-134.53 -0.69,-131.75 317.04 80
6 01/03/2014 06:36:10 0.06,-134.48 -0.36,-136.34 211.77 80
7 01/04/2014 06:12:51 0.07,-134.43 0.76,-131.35 351.16 80
8 01/05/2014 18:34:21 -0.04,-134.31 0.33,-135.89 180.60 80
9 01/06/2014 18:11:02
